Wetbulb
72.07 72.22 71.72 70.35 70.03 69.69 68.19 67.86 68.08 68.38 68.37 67.41 66.97 66.09 65.56 65.26 65.23 65.59 65.34 65.97 65.18 65.04 65.89 65.63 65.55 65.74 65.46 66.44 66.85 68.03 68.61 67.89 64.96 67.17 70.57 70.89 71.19 71.29 71.41 71.88 72.52 72.92 72.02
71.48 70.90 69.36 69.09 69.15 67.29 67.47 67.11 67.28 66.80 67.65 66.47 66.29 65.80 65.29 63.36 62.97 62.73 63.10 64.06 63.65 63.85 64.03 63.15 63.20 64.40 63.55 63.43 63.95 64.18 64.87 66.11 65.98 64.74 67.19 68.96 68.57 70.70 71.66 71.09 71.65 72.69 72.61
70.13 68.27 67.70 66.66 66.53 66.41 66.61 66.37 66.24 66.39 65.88 65.17 65.19 64.64 61.55 60.73 58.92 60.25 62.69 63.62 63.35 62.55 62.85 62.73 63.09 62.13 60.89 61.13 61.00 60.98 62.18 62.97 63.06 63.40 64.09 68.22 68.60 69.90 69.61 71.04 70.96 72.25 73.57
68.54 67.65 67.30 66.40 66.61 65.00 65.77 65.45 64.76 64.84 64.10 63.73 62.59 61.67 60.42 58.18 57.83 59.88 62.00 63.37 62.85 62.08 61.08 60.84 61.33 59.55 59.36 58.32 58.40 58.81 59.47 60.07 61.62 61.49 62.21 64.41 67.39 68.33 68.74 67.69 67.93 70.19 70.16
67.39 66.10 66.15 66.39 65.86 65.33 64.60 64.39 63.44 62.84 62.66 63.24 60.78 58.92 57.84 54.37 56.05 57.91 59.39 60.80 62.40 60.56 59.60 59.22 60.36 59.67 59.59 58.59 57.09 57.04 58.59 59.58 60.63 60.89 60.95 61.50 62.72 64.39 64.64 66.27 66.49 68.29 69.08
67.11 65.67 65.74 65.46 64.85 64.16 63.75 62.93 63.03 62.38 62.49 63.00 61.49 59.05 56.67 53.28 56.29 57.61 58.87 59.09 62.57 61.19 58.49 59.66 60.97 58.85 56.93 58.53 59.57 60.78 60.92 59.85 59.26 59.61 60.28 59.56 61.41 62.76 63.33 63.45 64.39 63.79 63.55
65.96 65.35 64.62 64.56 63.65 62.82 62.54 62.58 62.11 61.76 62.36 62.10 61.76 61.42 57.90 55.06 56.32 56.59 58.30 58.55 61.58 61.91 60.57 59.26 56.84 56.98 55.64 55.99 58.29 60.29 60.23 61.52 62.06 59.45 58.58 58.92 59.87 60.93 61.84 61.72 61.69 61.69 61.96
64.78 64.05 64.14 63.73 62.44 62.40 62.38 61.96 62.64 62.15 62.32 62.54 61.20 61.34 60.96 56.05 55.46 56.19 57.23 59.53 61.52 61.58 61.06 59.04 57.45 56.98 55.55 54.76 56.70 55.33 56.84 58.61 60.25 59.65 59.80 60.14 61.04 61.85 62.40 62.13 61.91 63.20 63.47
63.47 63.03 63.24 63.22 61.96 62.00 61.51 62.28 63.27 63.44 63.43 63.09 62.63 62.07 61.50 58.90 54.13 54.81 56.30 57.84 57.21 61.10 60.04 58.52 57.23 56.55 54.91 55.12 54.61 54.85 54.80 55.86 58.72 59.83 61.03 61.00 61.76 62.11 62.49 61.52 60.68 60.09 58.95
62.88 62.76 63.66 63.61 62.36 61.75 62.58 62.90 64.30 64.18 64.23 61.70 63.09 63.56 59.90 59.58 53.90 54.05 54.97 56.98 54.91 55.66 58.60 56.84 56.43 55.25 54.04 53.76 53.59 53.55 53.29 53.39 53.99 55.81 58.14 59.09 60.28 60.35 61.19 59.02 58.46 57.44 58.15
62.93 62.79 63.55 63.53 62.82 63.08 63.59 64.80 64.32 64.64 64.25 63.33 62.86 63.72 63.28 62.48 57.90 53.39 53.77 58.34 56.06 55.68 56.78 55.18 56.96 54.55 53.21 52.77 53.10 53.53 54.59 53.88 54.71 56.16 56.24 55.82 56.05 56.15 56.36 58.82 58.60 57.19 56.09
63.30 62.48 62.44 63.01 61.03 61.14 63.38 63.58 64.02 63.93 62.75 62.80 61.88 61.34 61.40 62.08 59.49 54.13 54.04 53.97 56.21 56.59 55.84 55.75 56.36 53.60 51.99 52.64 53.28 54.45 54.89 54.90 55.39 53.89 55.05 53.64 54.89 54.71 55.05 56.86 59.24 59.64 58.72
62.60 61.93 62.30 63.27 63.57 63.15 62.91 62.93 61.81 63.06 61.20 61.75 61.20 61.26 61.98 61.90 58.87 55.47 54.60 55.01 55.63 55.33 56.98 55.50 54.65 53.68 52.79 53.42 55.11 54.97 56.00 56.60 53.55 53.25 51.67 52.76 54.98 55.84 57.79 56.13 55.37 56.98 57.52
62.41 62.09 62.43 62.24 62.75 62.83 61.15 61.02 60.61 62.62 59.48 57.32 57.42 58.63 60.03 61.71 59.59 60.55 57.93 59.15 56.73 56.84 56.25 54.13 54.76 55.60 55.70 55.87 57.34 57.43 57.53 56.85 55.29 53.60 52.40 54.30 54.20 54.67 53.49 54.52 51.79 52.48 52.76
61.80 61.44 60.80 60.72 59.97 61.30 61.29 63.23 61.92 62.95 58.73 58.66 59.13 59.98 59.28 58.58 58.74 53.88 54.13 57.11 56.90 53.45 49.94 53.23 54.20 56.55 55.85 55.74 55.72 55.61 55.14 54.80 53.72 53.99 53.34 52.86 53.12 53.20 52.59 53.51 51.67 51.83 50.31
61.33 60.76 59.76 59.28 59.06 59.66 59.61 60.50 52.98 53.37 52.17 49.40 48.52 53.51 60.78 53.82 47.75 47.01 47.78 47.60 46.78 46.40 51.90 51.77 52.53 56.11 54.56 53.56 52.93 54.92 55.61 54.65 54.39 54.24 53.96 53.17 52.13 52.65 51.98 51.74 51.94 51.07 49.35
61.94 60.62 60.32 58.63 60.37 61.18 61.97 62.11 58.21 54.78 48.43 47.38 46.21 45.94 45.74 48.24 45.35 43.63 43.86 44.39 43.85 45.78 49.69 51.33 53.05 55.04 53.43 57.00 54.34 52.55 54.33 55.10 55.73 53.98 52.84 52.93 53.25 52.73 50.91 50.06 50.28 49.62 49.03
62.67 54.87 60.81 59.77 62.24 61.02 62.90 63.30 60.80 60.46 54.60 55.27 50.37 47.74 46.11 44.10 43.84 43.75 43.96 46.26 50.89 49.81 51.48 52.35 51.79 54.61 56.74 56.35 56.67 55.21 53.53 54.73 53.64 52.98 51.96 52.75 53.22 50.77 49.40 49.07 48.61 48.33 48.07
61.84 59.61 60.81 61.87 62.94 60.56 62.39 60.85 59.16 59.65 58.58 61.79 61.27 52.97 48.71 44.36 44.00 43.04 44.07 48.89 53.32 55.17 57.25 56.37 57.44 57.14 54.27 56.29 56.08 54.40 56.44 53.94 52.78 53.01 52.46 52.31 50.75 49.53 47.96 47.53 47.63 47.04 47.69
60.92 60.03 58.92 60.41 61.07 60.70 60.20 59.21 59.93 62.14 61.53 58.20 60.09 57.64 58.44 54.34 56.34 57.64 58.24 56.71 56.27 57.60 57.42 56.84 57.21 56.59 57.59 56.84 54.60 55.48 54.56 54.37 53.22 51.90 50.60 49.61 48.41 47.37 46.25 46.35 47.22 47.24 47.55
59.22 59.73 59.23 58.83 59.07 59.51 61.02 60.21 60.53 60.13 58.86 59.11 57.40 53.55 50.07 57.99 56.26 56.44 58.53 58.88 58.26 57.36 58.08 57.13 56.65 56.63 55.86 53.86 55.78 53.03 51.30 50.82 50.36 49.08 47.93 47.13 47.03 46.32 47.01 47.06 46.83 47.03 46.97
60.26 59.92 59.44 59.32 60.11 61.23 60.52 61.78 57.43 59.61 59.67 58.00 57.69 56.13 48.88 55.18 55.96 56.07 57.03 55.75 56.08 57.04 55.77 56.54 55.29 54.51 53.47 52.82 51.67 50.60 49.75 49.69 48.41 47.29 46.46 46.77 46.84 46.44 46.51 46.19 45.97 46.28 46.58
59.74 59.91 59.69 60.46 60.96 59.97 60.90 58.77 57.98 57.91 58.43 58.17 56.87 56.13 55.60 55.39 55.08 55.15 54.78 54.59 54.89 54.40 54.42 53.50 53.56 52.83 53.60 52.22 52.10 51.73 49.53 47.50 46.76 47.12 46.41 45.66 45.11 45.57 46.27 45.98 46.18 45.59 45.74
61.10 60.29 59.25 60.04 61.05 59.32 59.88 59.93 59.81 54.69 55.81 56.59 56.27 55.33 54.89 54.97 53.82 53.67 53.81 53.55 53.53 53.16 52.76 52.38 52.19 51.54 52.38 52.68 52.57 52.00 47.64 45.88 46.78 46.20 44.59 43.63 44.28 44.19 44.84 45.38 45.84 46.72 46.98
60.04 60.18 59.93 58.62 59.00 59.36 56.80 58.48 58.27 57.64 56.44 55.96 55.32 54.95 54.39 53.84 52.89 53.03 53.21 52.87 52.60 51.87 51.58 51.65 52.62 53.10 53.03 52.84 52.00 49.69 38.34 36.98 41.92 37.17 42.93 43.45 43.17 43.87 44.73 45.77 46.49 46.47 46.69
58.65 59.83 59.52 59.60 60.02 59.12 58.73 58.88 57.16 56.31 55.44 54.97 54.86 54.91 54.34 53.32 53.30 53.22 52.38 52.50 51.29 50.80 51.52 52.06 52.25 52.93 52.87 52.11 48.62 39.71 33.49 34.84 38.32 32.43 36.62 40.46 42.52 44.38 46.42 46.54 46.20 46.37 46.44
MSLP
1011.44 1011.94 1012.44 1012.97 1013.48 1013.70 1014.14 1014.57 1014.75 1015.02 1014.87 1014.89 1014.94 1014.99 1014.99 1014.84 1014.77 1014.67 1014.40 1014.15 1014.02 1013.81 1013.52 1013.55 1013.40 1013.19 1012.77 1012.23 1011.72 1011.25 1011.45 1011.49 1011.37 1010.90 1010.50 1009.81 1009.27 1009.03 1009.03 1008.88 1008.45 1008.66 1008.98
1011.92 1012.37 1012.75 1013.15 1013.51 1013.99 1014.30 1014.63 1014.88 1015.06 1015.05 1015.25 1015.32 1015.22 1014.98 1015.17 1015.28 1015.16 1014.88 1014.51 1014.23 1014.08 1014.02 1013.98 1013.91 1013.46 1013.43 1013.20 1012.74 1012.31 1012.00 1011.68 1011.51 1011.08 1010.61 1009.86 1009.39 1008.61 1008.43 1008.49 1008.51 1008.23 1008.21
1011.96 1012.32 1012.84 1013.22 1013.66 1014.22 1014.57 1014.93 1015.21 1015.29 1015.27 1015.36 1015.38 1015.29 1015.45 1015.66 1015.78 1015.61 1015.12 1014.76 1014.55 1014.29 1014.11 1014.25 1014.42 1014.43 1014.36 1014.06 1013.73 1013.25 1012.74 1012.17 1011.72 1011.24 1010.65 1010.02 1009.16 1008.61 1008.17 1007.91 1007.80 1007.76 1007.46
1011.78 1012.64 1013.31 1013.68 1014.02 1014.44 1014.96 1015.27 1015.50 1015.61 1015.72 1015.87 1015.90 1015.93 1015.85 1015.84 1016.03 1015.88 1015.45 1015.03 1014.90 1014.95 1015.08 1015.05 1015.08 1015.20 1015.01 1014.76 1014.25 1013.82 1013.52 1012.91 1012.01 1011.31 1010.59 1009.80 1009.27 1008.73 1008.58 1008.46 1008.11 1007.95 1007.65
1012.57 1013.27 1013.83 1014.30 1014.74 1015.16 1015.54 1015.82 1015.98 1016.06 1016.17 1016.27 1016.35 1016.39 1016.27 1016.24 1016.46 1016.38 1016.06 1015.64 1015.22 1015.44 1015.78 1015.66 1015.38 1015.46 1015.36 1015.16 1014.75 1014.33 1013.77 1013.20 1012.49 1011.70 1010.95 1010.28 1009.93 1009.54 1009.21 1009.02 1008.81 1008.32 1007.59
1012.91 1013.61 1014.27 1014.75 1015.15 1015.51 1015.79 1016.05 1016.19 1016.40 1016.39 1016.46 1016.51 1016.67 1016.94 1016.75 1016.71 1016.47 1016.34 1015.81 1015.34 1015.59 1015.95 1015.80 1015.52 1015.76 1015.70 1015.29 1014.78 1014.25 1013.82 1013.28 1012.66 1012.20 1011.64 1011.10 1010.61 1010.24 1009.88 1009.67 1009.19 1008.78 1008.06
1013.28 1014.01 1014.61 1015.00 1015.36 1015.82 1016.03 1016.25 1016.33 1016.51 1016.51 1016.61 1016.60 1016.67 1017.00 1017.19 1016.87 1016.56 1016.25 1015.90 1015.50 1015.58 1015.85 1015.97 1015.89 1016.00 1015.97 1015.53 1014.91 1014.20 1013.65 1013.03 1012.74 1012.42 1012.11 1011.82 1011.31 1010.82 1010.43 1009.61 1009.17 1008.94 1008.39
1013.58 1014.23 1014.74 1015.12 1015.56 1015.95 1016.16 1016.34 1016.29 1016.32 1016.50 1016.63 1016.69 1016.84 1016.83 1017.20 1017.11 1016.80 1016.26 1015.82 1015.44 1015.46 1015.70 1015.97 1016.14 1016.18 1016.06 1015.68 1015.01 1014.40 1013.79 1013.15 1012.63 1012.27 1012.08 1011.60 1011.23 1010.96 1010.54 1010.03 1009.39 1008.70 1007.87
1013.66 1014.23 1014.69 1015.05 1015.57 1015.94 1016.15 1016.17 1016.31 1016.40 1016.41 1016.38 1016.53 1016.64 1016.94 1017.22 1017.18 1017.05 1016.67 1016.03 1015.79 1015.62 1015.76 1016.06 1016.15 1016.03 1015.97 1015.78 1015.46 1014.83 1014.26 1013.51 1012.80 1012.07 1011.56 1011.09 1010.78 1010.53 1010.14 1009.86 1009.58 1009.16 1008.44
1013.60 1014.19 1014.66 1015.04 1015.48 1015.77 1016.07 1016.29 1016.38 1016.43 1016.29 1016.21 1016.12 1016.29 1016.59 1016.99 1017.13 1017.10 1016.93 1016.58 1016.43 1015.93 1016.23 1016.08 1015.71 1015.63 1015.66 1015.56 1015.49 1015.06 1014.31 1013.60 1013.09 1012.31 1011.50 1011.12 1010.91 1010.66 1010.39 1010.50 1010.29 1010.15 1009.58
1013.70 1014.32 1014.78 1015.16 1015.41 1015.73 1016.07 1016.16 1016.14 1016.08 1016.18 1016.03 1015.94 1015.85 1015.94 1016.29 1016.86 1016.90 1016.85 1016.74 1016.67 1016.32 1015.73 1015.70 1015.55 1015.37 1015.18 1015.16 1015.12 1014.87 1014.23 1013.70 1013.13 1012.29 1011.61 1011.31 1011.09 1010.93 1010.80 1010.65 1010.56 1010.42 1009.99
1013.84 1014.47 1014.91 1015.29 1015.39 1015.69 1015.89 1016.05 1016.02 1015.96 1015.85 1015.76 1015.47 1015.27 1015.27 1015.80 1016.26 1016.51 1016.66 1016.68 1016.65 1016.43 1015.89 1015.65 1015.53 1015.27 1015.07 1014.75 1014.64 1014.26 1013.81 1013.57 1013.00 1012.38 1011.81 1011.59 1011.18 1010.90 1010.66 1010.51 1010.37 1010.13 1009.96
1013.83 1014.48 1014.88 1015.01 1015.19 1015.41 1015.68 1015.73 1015.67 1015.54 1015.34 1015.11 1015.00 1014.75 1014.68 1015.16 1015.90 1016.16 1016.26 1016.34 1016.36 1016.44 1015.91 1015.64 1015.36 1014.95 1014.53 1014.35 1013.88 1013.67 1013.45 1013.10 1012.84 1012.53 1012.37 1011.89 1011.35 1010.88 1010.58 1010.33 1010.09 1009.87 1009.61
1013.69 1014.32 1014.66 1014.85 1015.06 1015.34 1015.36 1015.16 1015.07 1014.76 1014.92 1015.06 1015.14 1014.91 1014.85 1014.94 1015.59 1015.68 1016.08 1016.06 1016.03 1016.04 1015.70 1015.40 1015.05 1014.45 1013.72 1014.13 1013.69 1013.50 1013.12 1012.89 1012.67 1012.57 1012.31 1011.86 1011.43 1010.96 1010.71 1010.28 1010.15 1009.62 1009.34
1013.72 1014.05 1014.37 1014.56 1014.89 1014.92 1014.90 1014.42 1014.63 1014.95 1015.15 1015.21 1015.22 1015.15 1015.17 1015.20 1015.42 1015.63 1015.78 1015.88 1015.93 1015.93 1015.79 1015.43 1014.82 1014.08 1013.89 1013.90 1013.79 1013.58 1013.41 1013.20 1012.97 1012.70 1012.34 1011.73 1011.29 1010.93 1010.60 1010.17 1009.98 1009.68 1009.35
1013.59 1013.72 1013.69 1013.85 1014.21 1014.18 1014.18 1014.28 1014.46 1014.61 1014.78 1014.99 1015.21 1015.35 1015.07 1015.12 1015.37 1015.48 1015.58 1015.63 1015.65 1015.82 1015.75 1015.35 1014.73 1014.11 1013.76 1013.55 1013.41 1013.24 1013.23 1013.19 1013.00 1012.64 1012.28 1011.75 1011.10 1010.63 1010.36 1010.13 1009.93 1009.65 1009.39
1013.13 1013.20 1013.06 1013.25 1013.18 1013.26 1013.46 1013.54 1013.90 1014.34 1014.59 1014.97 1015.02 1014.88 1014.98 1015.00 1015.03 1015.26 1015.36 1015.32 1015.20 1015.62 1015.52 1014.86 1014.21 1013.47 1013.33 1013.40 1013.13 1013.02 1013.05 1012.92 1012.60 1012.45 1012.23 1011.84 1011.24 1010.52 1010.37 1010.14 1009.89 1009.66 1009.30
1013.12 1012.99 1013.03 1013.04 1012.91 1012.98 1012.95 1013.03 1013.21 1013.20 1013.98 1014.34 1014.20 1014.31 1014.25 1014.38 1014.69 1014.74 1014.85 1015.17 1014.92 1014.69 1014.37 1014.11 1013.67 1013.30 1013.10 1013.02 1012.75 1012.93 1012.84 1012.83 1012.58 1012.26 1011.96 1011.53 1011.01 1010.73 1010.46 1010.28 1010.07 1009.74 1009.31
1012.79 1012.87 1012.97 1012.63 1012.65 1012.75 1012.84 1012.78 1012.68 1012.47 1012.59 1012.78 1012.74 1013.18 1013.21 1013.89 1013.99 1013.78 1014.39 1014.62 1014.25 1013.81 1013.40 1013.33 1013.16 1013.01 1012.82 1012.65 1012.27 1012.49 1012.44 1012.45 1012.33 1011.97 1011.61 1011.24 1011.12 1010.93 1010.76 1010.55 1010.21 1009.67 1009.09
1012.46 1012.78 1012.90 1012.75 1012.46 1012.49 1012.21 1012.23 1011.89 1011.92 1012.08 1012.09 1012.19 1012.44 1012.86 1013.46 1013.63 1013.26 1012.66 1013.07 1013.25 1013.04 1013.03 1012.95 1012.66 1012.60 1012.38 1012.43 1012.46 1012.35 1012.22 1012.11 1011.88 1011.68 1011.77 1011.75 1011.66 1011.47 1011.14 1010.75 1010.16 1009.52 1008.96
1011.95 1012.41 1012.63 1012.62 1012.41 1012.03 1011.58 1011.71 1011.68 1011.69 1011.68 1011.61 1011.93 1012.37 1012.51 1012.70 1012.61 1012.45 1012.45 1012.47 1012.54 1012.47 1012.41 1012.51 1012.71 1012.50 1012.28 1012.23 1012.19 1012.20 1012.24 1012.16 1012.21 1012.45 1012.44 1012.32 1012.09 1011.68 1011.23 1010.72 1010.15 1009.47 1008.83
1011.12 1011.71 1012.04 1011.98 1011.76 1011.55 1011.42 1011.39 1011.61 1011.55 1011.44 1011.39 1011.64 1012.11 1012.31 1012.44 1012.19 1012.27 1012.22 1012.34 1012.40 1012.52 1012.65 1012.60 1012.49 1012.42 1012.35 1012.36 1012.44 1012.52 1012.57 1012.53 1012.89 1013.04 1012.93 1012.60 1012.21 1011.87 1011.34 1010.72 1010.09 1009.37 1008.61
1011.04 1010.94 1011.17 1011.03 1010.98 1010.95 1011.14 1011.21 1011.50 1011.36 1011.18 1011.32 1011.51 1011.69 1011.91 1012.06 1012.17 1012.18 1012.26 1012.42 1012.54 1012.60 1012.65 1012.68 1012.63 1012.56 1012.46 1012.57 1012.62 1012.67 1012.93 1013.33 1013.46 1013.23 1013.03 1012.87 1012.52 1011.95 1011.27 1010.63 1009.93 1009.20 1008.37
1011.05 1010.71 1010.51 1010.53 1010.60 1010.81 1011.06 1011.17 1011.14 1011.23 1011.25 1011.31 1011.54 1011.80 1011.95 1012.06 1012.21 1012.37 1012.51 1012.61 1012.68 1012.80 1012.80 1012.77 1012.68 1012.60 1012.49 1012.53 1012.61 1012.59 1013.41 1013.65 1013.43 1013.30 1013.39 1013.08 1012.39 1011.75 1011.25 1010.54 1009.65 1008.73 1007.96
1010.79 1010.48 1010.68 1010.80 1010.79 1010.84 1010.79 1011.26 1011.11 1011.03 1011.22 1011.49 1011.76 1011.94 1012.05 1012.35 1012.51 1012.52 1012.65 1012.83 1012.93 1013.04 1013.00 1012.76 1012.51 1012.35 1012.32 1012.39 1012.50 1012.93 1013.58 1013.62 1013.51 1013.52 1013.10 1012.68 1012.12 1011.52 1010.81 1009.92 1009.18 1008.54 1007.92
1010.53 1010.52 1010.67 1010.52 1010.59 1010.61 1011.00 1010.73 1010.93 1011.23 1011.54 1011.80 1012.04 1012.20 1012.36 1012.57 1012.53 1012.64 1012.91 1012.97 1013.15 1013.23 1012.93 1012.61 1012.49 1012.24 1012.16 1012.09 1012.84 1013.22 1013.43 1013.38 1013.13 1013.11 1012.97 1012.32 1011.58 1010.80 1010.05 1009.40 1008.83 1008.24 1007.62
Wind_Speed
7 8 7 7 6 6 6 6 5 5 5 7 8 10 8 7 7 5 6 7 7 9 8 7 8 8 8 9 7 5 3 4 6 6 6 6 5 6 6 8 10 6 5
8 7 7 6 6 6 5 6 6 6 5 8 4 4 6 10 9 9 9 7 6 7 6 6 8 8 10 11 10 11 10 10 7 9 7 6 6 6 7 6 6 7 6
8 8 7 6 6 6 6 7 6 5 6 8 7 8 9 8 9 8 7 7 8 7 6 8 9 11 10 9 10 10 9 9 9 7 8 5 5 6 6 5 5 5 3
9 8 6 6 6 7 6 6 7 7 7 7 8 8 7 8 9 9 10 7 7 10 12 10 10 10 9 11 9 10 9 9 9 8 9 7 3 5 4 5 5 3 4
8 7 6 7 7 7 7 6 7 7 6 6 8 9 10 9 9 9 10 10 6 8 10 9 7 13 16 13 7 9 9 8 8 9 9 9 7 8 6 6 6 6 6
8 8 7 6 7 6 6 6 5 5 6 5 6 8 8 8 15 16 12 9 6 8 6 5 4 12 13 16 15 15 12 9 9 6 6 8 10 9 8 8 7 8 6
9 8 7 7 7 6 6 5 5 5 5 5 5 5 7 7 14 17 19 7 4 5 5 6 7 8 10 10 13 10 9 13 10 8 8 9 10 10 10 10 9 7 8
9 9 8 8 8 6 6 5 4 4 4 3 4 5 5 5 12 14 19 9 4 4 5 6 5 5 7 11 9 9 10 9 7 5 5 7 7 6 7 8 11 10 9
9 9 8 8 8 6 6 4 3 2 3 3 3 4 2 4 5 10 11 8 9 4 6 4 3 4 7 11 9 8 8 7 11 13 9 10 9 10 9 6 7 8 7
9 8 7 8 8 6 5 4 2 3 2 4 1 4 7 6 4 2 6 5 7 7 6 4 4 5 4 7 6 8 8 8 10 12 6 6 9 8 10 9 9 9 8
9 8 7 7 7 6 4 3 4 2 1 4 5 4 6 6 7 6 3 3 3 5 5 5 5 7 9 6 7 7 9 8 12 7 4 4 4 4 5 5 4 6 8
10 9 8 7 7 7 6 4 5 4 6 7 7 7 8 7 9 8 9 8 4 4 6 5 6 8 13 15 9 13 16 13 7 8 5 6 4 3 3 5 5 4 4
10 9 8 7 6 7 5 6 5 7 7 6 4 2 2 7 6 8 11 10 10 5 5 7 13 14 15 12 12 13 10 3 5 5 7 7 5 5 5 4 3 6 5
10 9 7 5 4 5 6 6 8 2 5 5 5 4 4 3 5 4 4 2 8 7 5 8 12 14 16 13 5 4 4 3 3 3 5 4 6 5 4 4 6 6 3
9 8 8 7 7 7 7 3 3 3 2 2 3 2 2 3 3 3 2 2 2 3 6 6 9 4 4 4 5 5 7 7 7 7 9 5 4 4 4 4 6 5 7
8 7 8 8 8 8 7 4 4 6 11 10 7 4 4 6 8 6 6 8 6 1 3 6 8 6 3 2 3 2 2 5 5 7 9 9 7 4 4 5 5 5 8
7 7 5 4 5 4 3 3 7 7 8 6 10 12 10 11 8 8 10 8 7 7 4 7 8 5 3 2 4 3 3 2 4 4 8 9 11 4 6 6 6 7 8
6 2 4 5 3 4 3 2 2 4 8 8 15 14 15 15 13 15 2 2 6 7 5 5 5 5 3 3 2 1 1 3 5 5 8 9 8 6 7 7 8 8 9
5 5 4 4 2 3 1 4 6 5 2 3 4 5 11 10 13 10 6 6 7 6 4 3 3 3 3 5 4 3 2 4 6 7 7 7 7 7 8 9 10 11 10
6 2 1 4 2 5 7 8 5 2 3 4 2 3 4 3 4 7 4 4 4 3 2 3 4 3 3 4 4 4 4 4 6 6 7 8 9 9 10 11 10 10 10
7 6 7 5 6 6 3 3 4 4 5 5 4 4 6 2 4 4 3 3 3 2 3 4 4 5 3 2 3 5 7 7 7 8 8 9 9 9 9 10 11 11 11
6 9 8 8 7 5 5 2 3 6 5 3 3 4 7 4 5 5 4 5 5 5 2 3 4 5 5 6 6 7 7 6 8 8 8 8 8 9 10 10 10 11 11
6 7 9 6 5 4 4 2 3 6 7 6 6 5 5 5 5 5 5 5 4 5 5 5 5 5 4 5 5 5 5 6 6 6 7 9 9 9 10 10 10 11 10
9 8 6 3 3 2 5 3 4 4 3 6 6 5 5 4 5 6 4 5 5 6 6 6 5 7 4 4 5 3 5 5 5 6 9 8 9 11 10 11 12 13 11
10 3 6 4 3 0 1 5 7 5 5 5 5 5 5 6 6 5 5 5 5 6 7 7 4 6 6 8 4 8 6 3 3 4 6 9 12 13 11 10 11 11 13
3 2 1 4 3 1 3 3 6 6 6 5 6 5 4 5 5 5 5 5 6 6 8 5 7 9 8 4 6 6 6 6 5 5 6 8 9 9 9 11 14 11 13
Wind_Direction
112 105 112 108 98 76 81 66 55 62 46 40 26 45 24 44 7 19 338 22 9 3 9 10 354 360 350 346 333 300 290 305 299 310 297 295 286 246 236 231 244 228 124
110 116 111 94 82 80 58 80 52 51 40 74 33 81 36 47 23 13 4 349 16 350 19 17 12 13 14 5 350 356 353 355 341 318 308 304 291 295 285 254 249 252 211
150 134 123 116 100 85 76 66 69 53 54 47 37 39 53 50 27 5 342 17 3 10 18 40 36 26 10 358 343 349 340 343 324 310 304 289 289 291 317 308 291 268 235
107 94 97 85 64 77 82 74 79 62 55 50 44 28 59 44 33 8 358 5 20 34 27 19 47 30 12 354 341 339 338 319 322 322 321 305 263 313 320 323 345 329 280
111 119 97 89 86 84 86 78 65 61 65 67 65 39 12 45 28 8 350 338 46 57 42 4 14 29 6 352 343 333 326 324 320 325 328 333 349 356 351 343 327 329 313
130 113 112 114 113 105 95 88 94 86 72 60 80 74 36 28 10 8 2 319 43 76 51 11 19 46 4 354 359 337 343 338 321 343 343 343 346 346 351 345 330 343 330
124 124 129 131 116 114 116 115 102 91 79 64 49 78 73 22 8 3 351 320 50 57 85 39 9 29 5 349 327 353 335 331 12 335 353 341 334 343 330 325 323 313 296
133 132 139 135 127 136 129 129 127 110 95 85 71 22 80 51 6 358 354 339 22 95 77 58 33 22 2 351 343 356 348 350 341 339 312 306 311 321 315 322 307 304 290
139 141 150 143 140 149 149 134 115 161 184 178 149 140 26 100 11 359 356 343 358 12 103 92 93 42 351 343 332 349 343 355 333 330 300 295 289 296 310 337 350 342 337
142 145 153 147 147 154 136 158 182 252 249 303 89 204 164 158 205 12 358 348 350 333 148 164 108 48 299 312 319 319 326 331 327 313 334 353 0 358 20 15 360 350 342
138 141 149 148 152 138 171 188 205 239 270 252 242 233 202 179 175 195 264 320 358 320 334 9 360 324 321 305 302 297 284 312 310 299 332 350 356 357 4 349 356 337 334
140 144 150 156 183 163 186 191 241 230 235 241 249 245 195 168 169 206 223 237 288 303 319 356 316 311 307 297 294 279 288 312 295 341 348 348 331 339 343 326 347 321 297
148 151 162 180 214 153 193 206 229 239 252 220 208 299 92 155 173 189 212 232 252 256 295 333 321 306 287 287 266 260 280 296 351 350 350 329 339 327 323 318 327 316 321
152 162 167 177 179 181 219 224 234 194 35 15 344 343 16 18 141 136 208 214 231 268 354 329 301 285 271 265 334 346 301 341 321 0 325 325 323 325 330 326 337 309 301
158 173 173 194 196 200 238 199 96 94 168 238 257 287 301 293 134 140 168 279 311 333 333 310 302 303 33 8 353 338 359 351 350 342 325 311 311 317 315 337 317 323 320
174 191 196 172 190 206 200 175 226 185 195 212 239 242 254 235 161 183 203 235 234 297 273 280 287 291 305 263 279 301 299 323 335 329 327 321 307 305 318 324 325 320 324
198 198 196 233 196 178 198 227 192 226 228 235 246 245 236 250 266 248 247 260 250 149 234 264 272 266 257 317 288 279 325 310 312 336 321 322 312 326 337 332 325 329 318
230 114 173 226 175 224 232 242 219 246 193 224 235 235 235 228 247 267 252 221 273 197 232 250 269 279 349 312 314 334 349 330 325 320 311 307 304 344 337 338 331 324 318
212 191 242 244 216 98 276 252 253 248 240 294 232 177 226 218 234 249 168 246 276 281 287 240 311 312 328 307 295 261 15 324 299 288 292 306 348 351 346 336 323 310 306
178 117 180 345 316 221 230 220 254 306 273 256 312 270 125 133 225 244 246 176 229 263 294 268 282 296 298 328 0 356 312 293 304 340 359 3 358 345 333 317 308 316 311
195 175 222 216 247 255 277 308 288 297 312 320 356 92 124 335 321 315 52 16 14 239 309 25 353 306 324 353 337 350 351 343 5 20 359 350 336 321 320 318 316 313 313
224 171 192 220 226 219 235 317 349 298 287 280 16 152 188 269 347 2 1 15 15 24 23 346 338 1 353 8 12 354 333 8 21 3 340 326 328 324 314 312 310 306 309
251 245 202 222 227 217 202 253 319 339 337 1 347 348 353 359 350 344 13 2 10 1 2 353 343 352 11 19 354 330 35 33 359 346 339 332 318 309 309 309 312 301 297
274 257 243 284 122 330 355 12 318 240 20 1 7 355 337 349 359 6 5 359 5 358 352 333 343 323 3 353 329 33 66 37 6 347 339 306 301 309 309 302 294 295 309
260 312 11 308 37 254 56 320 263 16 8 359 360 337 5 15 342 334 10 348 10 349 337 312 320 340 342 318 43 52 82 79 329 309 305 304 294 297 289 291 304 316 309
237 215 263 312 2 183 248 302 35 16 3 6 348 4 355 342 312 22 358 0 10 328 303 341 326 322 320 50 80 116 165 228 311 304 297 291 287 287 292 296 296 297 299